Regional Weather Roundup
Issued by NWS

Home | Current Version | Previous Version | Graphics & Text | Print | Product List | Glossary On
Versions: 1 2 3 4 5 6 7 8 9 10 11 12 13 14 15 16 17 18 19 20 21 22 23 24 25 26 27 28 29 30 31 32 33 34 35 36 37 38 39 40 41 42 43 44 45 46 47 48 49 50
439
ASUS45 KBOI 211810
RWRID

IDAHO REGIONAL WEATHER ROUNDUP
NATIONAL WEATHER SERVICE BOISE ID
1200 PM MDT THU SEP 21 2017

NOTE: "FAIR" INDICATES FEW OR NO CLOUDS BELOW 12000 FEET
WITH NO SIGNIFICANT WEATHER AND/OR OBSTRUCTIONS TO VISIBILITY

IDZ012-014-211900-
SOUTHWEST IDAHO


CITY           SKY/WX    TMP DP  RH WIND       PRES   REMARKS
BOISE          PTSUNNY   51  43  74 W8        29.84R
CALDWELL       PTSUNNY   54  38  54 W8        29.85S
MOUNTAIN HOME  PTSUNNY   47  43  85 W5        29.84S
$$

IDZ016-017-211900-
SOUTHCENTRAL IDAHO


CITY           SKY/WX    TMP DP  RH WIND       PRES   REMARKS
BURLEY         CLOUDY    43  39  86 S5        29.82F
JEROME         CLOUDY    43  42  97 SW5       29.84S
TWIN FALLS     CLOUDY    44  40  85 W7        29.83S
$$

IDZ019>023-211900-
SOUTHEAST IDAHO


CITY           SKY/WX    TMP DP  RH WIND       PRES   REMARKS
IDAHO FALLS    LGT RAIN  39  37  92 S7        29.86R WCI  34
POCATELLO      LGT RAIN  41  39  93 SW7       29.84S
REXBURG        LGT RAIN  39  37  92 S6        29.85R WCI  35
$$

IDZ006-010-011-018-031-032-211900-
CENTRAL IDAHO MOUNTAINS


CITY           SKY/WX    TMP DP  RH WIND       PRES   REMARKS
MCCALL         CLOUDY    40  35  83 W6        29.80S
HAILEY         CLOUDY    43  37  81 SE7       29.82S
STANLEY          N/A     38  33  82 NW5       29.82S WCI  34
SALMON         CLOUDY    45  37  73 CALM      29.84F
CHALLIS        CLOUDY    46  33  60 N8        29.81R
$$

IDZ002-004-006-007-026-211900-
NORTHERN IDAHO


CITY           SKY/WX    TMP DP  RH WIND       PRES   REMARKS
LEWISTON       CLOUDY    51  45  79 NW3       29.89R
LOWELL           N/A     54  42  64 N3        29.88F
COEUR D`ALENE  CLOUDY    44  42  93 CALM      29.89R
MULLAN PASS    FOG       32  30  92 CALM      29.84R VSB<1/4
$$




USA.gov is the U.S. government's official web portal to all federal, state and local government web resources and services.